Overview Statistics Trail Chart Weather Telemetry Raw packets
 

This is the latest recevied weather packets stored in our database for station/object KV9E. If no packets are shown the sender has not sent any weather packets the latest 10 day(s).

<< 32 33 34 35 36 37 38 >>
Time Temp. Humidity Pressure Rain* Wind** Luminosity Snow
1788396200 27.78° C 72% 1017.7 hPa 0 mm - 0 W/m² -
1788395895 27.78° C 72% 1017.8 hPa 0 mm - 0 W/m² -
1788395590 27.78° C 72% 1017.6 hPa 0 mm - 0 W/m² -
1788395284 28.33° C 71% 1017.8 hPa 0 mm - 0 W/m² -
1788394984 28.33° C 71% 1017.9 hPa 0 mm - 0 W/m² -
1788394679 28.33° C 71% 1017.8 hPa 0 mm - 1 W/m² -
1788394374 28.33° C 70% 1017.8 hPa 0 mm - 2 W/m² -
1788394068 28.89° C 69% 1017.8 hPa 0 mm - 3 W/m² -
1788393763 28.89° C 68% 1017.7 hPa 0 mm - 5 W/m² -
1788393462 28.89° C 68% 1017.9 hPa 0 mm - 6 W/m² -
1788393157 28.89° C 67% 1017.9 hPa 0 mm - 9 W/m² -
1788392856 29.44° C 68% 1017.8 hPa 0 mm - 12 W/m² -
1788392555 29.44° C 68% 1017.9 hPa 0 mm - 16 W/m² -
1788392250 29.44° C 69% 1017.6 hPa 0 mm - 19 W/m² -
1788391949 30° C 67% 1017.8 hPa 0 mm - 22 W/m² -
1788391648 30° C 67% 1017.7 hPa 0 mm - 25 W/m² -
1788391343 30.56° C 65% 1017.6 hPa 0 mm - 28 W/m² -
1788391037 30.56° C 65% 1017.7 hPa 0 mm - 30 W/m² -
1788390732 30.56° C 65% 1017.6 hPa 0 mm - 34 W/m² -
1788390427 31.11° C 64% 1017.6 hPa 0 mm - 37 W/m² -
1788390126 31.11° C 62% 1017.7 hPa 0 mm - 42 W/m² -
1788389821 31.11° C 63% 1017.7 hPa 0 mm - 44 W/m² -
1788389520 31.67° C 61% 1017.8 hPa 0 mm - 56 W/m² -
1788389219 31.67° C 60% 1017.8 hPa 0 mm - 64 W/m² -
1788388915 31.67° C 61% 1017.7 hPa 0 mm - 114 W/m² -

* Rain latest hour (hover to see other rain measurements)
** Current wind speed in m/s (hover to see current wind gust speed)